Location: Navajo
(48.7922°N, 105.0603°W)
Time: 04:50:19
(UTC+00:00)

ITUPSAT 1 - Pass Details

Date: 04 July 2022
Orbit: 701 x 711 km, 98.6° (Epoch: 07 August)

Event Time Altitude Azimuth Distance (km) Brightness Sun altitude
Rises 04:55:09 0° 3° (N) 3,113 ? -12.7°
Reaches altitude 10° 04:57:53 10° 348° (NNW) 2,191 ? -12.9°
Maximum altitude 05:01:24 21° 301° (WNW) 1,572 ? -13.2°
Drops below altitude 10° 05:04:57 10° 253° (WSW) 2,184 ? -13.5°
Sets 05:07:39 0° 237° (WSW) 3,100 ? -13.7°
